Preview of NWS' New Version of Forecast
This preview is not operational and should not be used for support decisions.

Regional Weather Roundup (RWR)

Issued by National Weather Service (NWS)

                            
000
ASUS45 KBOI 142010
RWRID 

IDAHO REGIONAL WEATHER ROUNDUP
NATIONAL WEATHER SERVICE BOISE ID
200 PM MDT SAT SEP 14 2019

NOTE: "FAIR" INDICATES FEW OR NO CLOUDS BELOW 12000 FEET
WITH NO SIGNIFICANT WEATHER AND/OR OBSTRUCTIONS TO VISIBILITY

IDZ012-014-142100-
SOUTHWEST IDAHO

  
CITY           SKY/WX    TMP DP  RH WIND       PRES   REMARKS
BOISE          SUNNY     85  38  18 S8        30.02F                  
CALDWELL       SUNNY     81  47  30 VRB5      30.01F                  
MOUNTAIN HOME  SUNNY     82  38  20 SE7       30.02F                  
$$

IDZ016-017-142100-
SOUTHCENTRAL IDAHO

  
CITY           SKY/WX    TMP DP  RH WIND       PRES   REMARKS
BURLEY         SUNNY     83  38  20 CALM      30.10F                  
JEROME         SUNNY     82  40  22 CALM      30.11F                  
TWIN FALLS     SUNNY     82  40  22 NE7       30.11F                  
$$

IDZ019>023-142100-
SOUTHEAST IDAHO

  
CITY           SKY/WX    TMP DP  RH WIND       PRES   REMARKS
IDAHO FALLS    MOSUNNY   77  35  21 SW14      30.17F                  
POCATELLO      SUNNY     82  34  17 VRB6      30.15F                  
REXBURG        MOSUNNY   75  36  24 SW13G21   30.17F                  
$$

IDZ006-010-011-018-031-032-142100-
CENTRAL IDAHO MOUNTAINS

  
CITY           SKY/WX    TMP DP  RH WIND       PRES   REMARKS
MCCALL         SUNNY     75  36  24 S15       30.12F                  
HAILEY         MOSUNNY   77  39  25 SE7       30.19F                  
STANLEY          N/A     73  29  19 VRB5      30.22F                  
SALMON         SUNNY     74  43  32 NW7       30.03F                  
CHALLIS        SUNNY     82  31  15 SW15G24   30.08F                  
$$

IDZ002-004-006-007-026-142100-
NORTHERN IDAHO

  
CITY           SKY/WX    TMP DP  RH WIND       PRES   REMARKS
LEWISTON       PTSUNNY   76  49  38 CALM      29.94F                  
LOWELL           N/A     75  55  49 CALM      29.94F                  
COEUR D'ALENE  CLOUDY    68  47  46 S8        29.99F                  
MULLAN PASS    PTSUNNY   58  40  51 VRB3      30.11F                  
$$